Temperature
17 17 17 18 19 19 19 19 19 20 21 19 18 18 19 21 21 21 22 22 22 22 21 21 20 19 18 17 17 16 15 14 13 12 12 12 11 11 11 10 10 10 10 10
17 16 18 19 19 19 19 18 19 20 20 19 18 18 19 20 20 21 21 21 22 21 21 20 19 19 18 17 17 16 15 15 14 13 13 12 12 11 11 11 10 10 10 10
17 18 19 19 19 19 18 18 18 19 19 19 18 17 19 20 21 21 21 21 21 21 20 20 19 18 17 17 16 16 15 14 14 13 12 12 11 11 11 10 10 10 10 10
17 19 19 18 18 18 18 19 19 18 17 17 18 16 18 20 20 20 20 21 20 20 20 19 18 17 17 16 15 15 14 14 13 13 12 12 12 11 11 11 10 10 10 10
17 18 18 18 19 19 18 19 19 18 17 16 17 16 18 20 20 19 19 20 20 19 19 18 17 17 16 15 15 14 14 13 13 13 12 12 12 11 11 11 10 10 10 10
18 19 19 18 19 19 18 18 18 17 16 14 16 16 17 19 20 20 19 20 19 18 18 17 16 16 15 14 14 14 13 13 13 12 12 12 11 11 10 10 10 10 10 10
17 18 18 19 17 18 17 16 15 14 13 14 17 17 18 20 20 20 19 19 19 18 17 16 15 15 14 14 13 13 13 13 12 12 12 11 11 11 11 11 10 10 10 10
15 15 17 17 17 16 16 16 15 15 15 17 17 16 18 20 20 20 20 19 18 17 16 15 14 14 13 13 13 13 13 13 12 12 12 11 11 10 10 10 10 10 10 10
16 16 17 17 18 18 16 16 17 16 16 16 17 19 20 20 19 19 19 19 18 17 16 15 14 13 13 13 13 13 13 12 12 12 12 11 11 10 10 10 10 10 10 10
18 16 17 17 17 17 17 17 16 15 14 14 16 17 17 18 18 18 18 18 18 17 16 15 14 14 13 13 13 12 12 12 13 12 12 11 11 11 10 10 10 10 10 10
17 17 15 15 15 15 16 16 16 16 16 15 15 17 19 18 18 18 18 19 18 17 16 15 14 14 13 13 13 12 12 12 12 12 11 11 11 10 10 10 10 10 10 9
17 16 14 14 16 17 16 16 16 15 15 15 15 16 20 19 18 18 18 18 18 17 16 15 14 14 13 13 13 12 12 12 12 11 11 11 10 10 10 10 10 10 9 9
16 15 14 13 14 15 15 16 16 16 16 15 15 16 18 18 18 18 18 18 18 17 16 15 14 14 13 13 13 13 12 12 12 11 11 10 10 10 10 10 9 9 9 9
16 14 14 14 14 14 14 15 16 16 15 15 15 17 18 17 17 17 18 18 18 17 16 15 14 14 13 13 13 13 12 12 12 11 11 10 10 10 10 9 9 9 9 8
15 14 14 16 17 16 15 15 16 16 16 15 16 17 18 18 17 18 19 19 18 17 16 15 15 14 13 13 13 12 12 12 11 11 11 11 10 10 9 9 9 8 8 8
13 13 14 15 16 17 16 16 15 16 16 16 16 16 18 19 19 19 19 18 18 17 16 15 15 14 13 13 13 12 12 11 11 11 10 10 10 9 9 9 8 8 8 7
12 13 13 13 15 15 14 15 15 15 16 16 15 16 18 17 17 18 18 18 17 17 16 15 15 14 14 13 13 12 12 11 11 10 10 9 9 9 8 8 8 7 7 7
12 12 12 12 13 11 14 16 16 16 16 16 16 16 17 17 18 18 18 18 17 16 16 15 15 14 14 13 12 12 11 10 10 10 9 9 8 8 8 7 7 7 7 6
12 12 12 11 11 12 15 16 16 15 15 16 16 16 16 18 17 16 17 17 16 16 15 15 14 14 13 13 12 11 11 10 10 9 9 8 8 7 7 7 6 6 6 6
12 12 11 10 11 11 15 15 17 16 14 16 16 15 15 15 13 13 16 16 16 15 15 14 13 13 13 12 11 11 10 10 9 9 8 8 7 7 6 6 6 5 5 5
10 11 11 10 10 12 16 15 15 13 14 16 17 16 16 13 14 15 15 15 15 14 14 13 13 12 12 11 11 11 10 10 9 8 8 7 7 6 6 5 5 5 4 4
11 10 10 11 10 11 13 14 14 14 17 17 17 17 17 16 15 15 14 14 13 13 13 12 12 12 11 11 10 10 10 9 8 8 7 6 6 5 5 4 4 4 4 3
12 12 12 12 12 14 14 15 16 17 17 17 17 17 16 15 14 14 13 13 12 12 12 11 11 11 10 10 10 9 9 8 8 7 6 6 5 5 4 4 4 3 3 3
12 13 13 13 14 14 15 16 16 16 16 16 16 16 16 15 14 13 12 12 12 11 11 11 11 10 10 9 9 9 8 7 7 6 5 5 4 4 4 3 3 3 2 2
12 12 12 13 14 13 14 15 16 16 16 16 16 16 15 15 14 13 12 12 11 11 11 10 10 10 9 9 8 8 7 6 6 5 5 4 4 3 3 3 2 2 1 1
11 11 12 12 14 13 13 16 15 15 15 15 15 15 14 14 14 13 12 12 11 11 10 10 9 9 9 8 7 7 6 6 5 5 4 4 3 3 2 2 2 1 0 -0
Wind_Speed
11 10 13 14 15 12 8 8 8 5 2 3 8 12 12 12 11 11 10 10 9 9 9 11 11 11 11 10 12 14 14 13 11 10 9 8 7 6 6 6 10 11 10 10
11 17 16 13 10 10 10 10 10 7 2 3 8 13 14 14 12 10 8 7 7 6 5 8 10 10 10 10 11 13 14 13 12 10 9 7 7 6 5 5 8 11 10 10
21 12 15 15 12 11 11 11 9 7 5 6 9 10 11 9 9 6 6 6 5 5 4 7 9 9 10 10 11 11 13 13 12 11 8 7 6 5 4 5 5 7 10 10
18 16 13 15 14 12 10 9 7 6 5 6 5 6 8 8 6 7 7 6 4 4 4 6 9 10 10 9 9 10 11 12 11 12 11 12 8 7 6 6 5 6 9 10
12 15 15 15 14 13 7 2 3 5 7 9 9 8 7 8 7 7 7 6 5 4 4 5 8 9 9 9 8 8 10 11 11 12 12 11 8 7 6 7 8 7 6 9
14 12 14 14 10 8 6 3 2 4 4 8 11 10 7 5 5 6 6 6 5 6 6 5 7 9 8 8 8 7 9 10 11 12 12 11 11 10 10 10 9 7 6 5
17 13 10 8 10 8 8 6 4 6 6 8 7 7 7 3 4 5 5 4 5 7 7 7 8 9 9 9 8 7 9 10 11 11 11 11 11 11 11 10 9 9 6 5
17 16 14 9 10 10 12 11 8 6 5 3 5 7 6 4 5 6 5 5 5 7 7 8 9 9 9 10 9 9 10 10 11 11 10 10 10 8 8 9 9 8 7 7
15 14 15 13 10 11 13 14 12 7 7 5 6 6 6 6 5 5 5 6 6 7 8 8 9 9 10 11 10 10 10 10 11 11 10 10 10 9 9 9 8 7 7 7
9 10 12 12 9 11 10 10 7 7 5 6 8 10 7 9 9 8 7 7 7 8 8 9 8 9 9 10 10 10 10 10 10 10 9 8 9 9 9 9 9 9 9 8
15 8 8 10 16 17 13 12 9 8 7 5 5 4 3 8 10 9 8 8 7 8 8 8 8 8 9 9 10 9 9 9 10 10 9 8 8 9 9 8 9 9 8 9
15 6 8 11 10 10 15 16 13 9 8 8 5 5 3 8 9 8 7 7 7 7 7 7 8 8 8 9 9 9 9 9 9 9 8 8 8 9 9 8 9 9 9 9
14 8 9 8 7 9 12 16 16 12 8 8 9 6 5 8 8 7 6 7 7 8 7 6 7 8 8 9 9 9 9 9 9 9 9 9 9 9 9 9 9 9 9 8
13 8 11 13 9 12 12 15 16 15 12 13 13 10 6 8 9 9 9 8 8 8 8 7 6 7 8 8 8 9 9 9 9 9 9 9 9 9 9 8 8 9 9 8
8 11 12 11 8 14 15 17 19 20 18 13 12 13 11 9 9 8 8 8 7 7 8 7 7 6 7 8 8 8 8 8 9 9 9 8 8 8 8 8 8 8 8 8
7 8 12 13 10 7 11 17 19 21 18 17 14 14 9 5 3 4 6 7 7 7 8 8 7 7 8 8 8 8 8 8 8 8 8 7 7 8 8 8 8 8 7 7
9 8 9 11 10 7 13 15 16 16 16 15 18 16 9 8 7 7 6 7 7 7 8 8 8 7 7 7 8 8 8 8 8 8 7 7 8 8 7 8 7 7 7 6
12 11 6 7 9 13 11 11 14 15 15 15 13 10 9 9 6 5 6 7 7 7 8 8 7 7 6 7 7 8 8 8 8 7 7 7 7 7 7 7 7 6 5 6
11 12 7 6 8 8 7 10 14 15 15 14 14 12 10 6 2 3 5 6 7 7 8 7 7 8 7 8 8 8 8 8 8 7 7 7 7 7 7 7 6 5 5 5
12 11 7 6 7 9 8 11 9 8 11 12 14 14 11 9 6 7 5 6 7 8 8 8 8 9 8 8 8 9 8 8 7 6 6 7 7 7 7 6 5 4 4 4
13 11 12 8 6 8 5 10 12 9 9 9 13 12 11 12 9 7 8 8 9 10 10 9 9 8 8 8 8 8 8 7 6 6 6 6 6 6 5 5 4 4 3 3
13 11 11 9 8 8 6 11 12 7 4 5 7 8 9 8 9 10 10 10 10 10 9 9 9 8 7 7 8 8 7 7 7 7 6 6 5 4 4 4 3 3 3 3
12 12 8 10 10 5 11 10 8 5 6 5 6 7 10 10 9 9 9 10 9 9 8 8 10 9 7 7 7 9 7 7 7 7 6 5 5 4 3 3 3 2 2 2
8 10 8 7 9 10 10 8 7 5 6 6 7 8 9 9 11 10 10 9 9 8 8 8 10 9 7 7 7 8 8 7 7 7 5 4 4 3 2 2 2 2 2 3
6 7 9 9 6 10 10 10 9 7 7 8 7 7 9 11 11 10 10 10 9 8 7 8 9 9 8 8 8 8 7 7 7 6 5 4 3 3 2 1 2 3 4 4
7 8 11 9 9 8 9 11 10 10 10 10 9 8 8 9 11 10 10 9 9 9 8 8 9 9 9 8 8 7 6 7 7 5 4 3 2 1 1 1 2 3 5 8
Wind_Direction
195 209 214 215 216 238 271 287 287 288 127 191 249 264 267 261 253 247 244 239 234 226 203 178 170 162 162 165 165 167 169 175 171 170 174 172 173 168 163 157 163 165 168 165
200 217 220 222 220 223 242 258 271 281 200 221 259 269 269 257 249 241 240 246 243 239 206 168 158 156 163 169 169 168 170 174 174 173 172 169 164 163 158 150 159 165 163 159
213 211 211 222 219 220 227 237 251 273 306 268 263 274 262 253 228 217 220 229 237 227 207 167 156 161 164 171 173 174 172 171 171 163 159 153 142 137 141 154 160 162 158 154
222 219 208 209 218 217 230 227 240 269 285 280 274 291 274 264 224 200 198 199 202 190 189 171 164 165 169 169 166 169 166 165 167 163 167 165 165 166 169 163 161 160 158 156
217 205 207 212 212 210 216 192 228 247 260 271 266 267 263 242 222 192 179 163 156 153 166 172 166 163 159 149 151 160 159 163 166 168 170 170 171 169 157 156 159 163 160 157
227 210 206 211 211 207 174 159 236 255 258 257 236 233 268 235 204 160 141 136 145 149 152 154 144 138 133 132 141 154 159 164 167 170 173 179 177 171 162 162 165 164 158 155
223 220 210 190 188 187 174 170 205 209 212 238 207 214 246 221 120 116 119 122 134 141 146 149 142 144 140 142 152 162 163 166 169 172 179 185 181 175 169 166 166 162 160 162
205 210 201 193 191 184 189 194 205 207 214 208 182 220 239 189 135 125 136 143 141 141 145 153 156 156 151 156 165 174 174 172 173 177 184 182 178 174 169 166 164 166 167 167
198 211 186 188 194 188 188 209 232 274 297 293 249 231 218 182 152 149 158 154 150 147 147 155 158 161 159 166 175 182 179 174 175 178 180 179 177 170 165 163 161 162 158 157
206 197 183 177 185 218 209 190 196 214 222 240 246 239 226 183 179 176 170 161 151 144 150 158 164 168 165 168 176 182 179 175 174 176 180 178 171 164 160 159 160 157 152 150
231 204 171 170 192 194 199 207 199 200 222 219 243 247 201 164 157 157 156 149 147 154 159 162 167 168 163 164 171 178 176 169 172 176 173 167 164 159 156 157 159 155 151 155
214 205 193 204 201 206 204 207 202 200 208 214 242 266 120 118 124 131 136 141 144 147 154 158 162 162 163 168 173 176 173 169 172 170 165 163 159 156 157 161 160 155 156 162
200 201 183 181 199 211 219 212 211 219 232 222 217 232 158 137 139 148 160 164 160 157 155 158 161 166 168 171 174 174 173 170 168 165 164 163 162 162 165 165 161 159 161 164
192 202 204 195 184 182 204 212 211 213 224 233 233 234 200 176 175 177 182 185 176 165 162 164 170 174 170 170 173 173 173 168 165 165 166 168 169 169 169 165 162 163 162 165
185 211 223 227 206 180 193 203 209 216 220 224 229 232 230 212 196 189 186 186 173 160 165 171 175 176 169 169 172 170 168 164 162 164 168 171 166 163 163 161 161 161 163 170
181 206 221 231 230 209 208 205 209 218 224 234 244 248 245 253 218 201 199 187 175 174 173 171 173 171 169 168 168 164 162 159 156 161 165 162 160 161 161 160 159 161 166 170
189 199 204 222 217 223 235 216 211 216 221 224 236 242 245 248 231 217 209 186 181 181 172 170 172 172 165 161 159 161 157 150 151 155 157 159 159 159 159 158 160 168 173 175
196 204 201 200 196 222 233 203 209 220 224 219 228 231 223 227 223 196 188 189 189 177 163 163 159 153 146 141 139 139 138 140 145 151 155 154 152 153 155 160 171 176 176 182
204 199 202 192 204 237 229 200 198 209 230 220 225 229 224 211 208 244 207 181 171 157 146 144 141 135 129 129 130 128 130 134 143 152 153 151 151 155 161 171 177 179 179 190
203 202 200 188 200 220 216 187 174 181 242 220 213 219 209 171 203 229 182 155 139 123 118 119 118 117 120 123 125 128 133 136 145 146 144 144 149 156 166 173 176 178 180 189
190 197 202 195 210 243 216 156 136 175 228 208 201 204 189 186 197 161 131 119 119 117 117 118 116 116 122 124 124 128 129 136 136 131 131 136 143 152 159 164 167 165 167 175
185 184 195 197 207 224 171 151 170 195 171 164 171 174 167 158 136 132 128 124 122 121 124 122 116 114 115 121 125 126 129 130 124 125 129 134 138 142 146 149 156 159 166 196
196 190 182 196 209 179 171 184 190 154 154 156 149 144 144 144 146 140 138 135 133 134 130 123 122 119 116 119 126 130 131 127 125 125 127 128 127 128 137 145 152 163 184 211
200 192 192 196 198 184 187 187 179 165 155 146 142 142 144 147 147 145 144 142 139 134 131 128 128 128 125 119 113 122 125 124 124 126 126 125 126 132 133 134 157 182 209 228
190 185 206 212 179 162 191 195 182 165 140 131 132 145 151 146 149 151 149 148 143 136 133 134 136 134 130 120 114 117 122 123 122 121 121 120 123 135 141 165 199 211 220 225
197 193 199 209 190 177 195 195 179 167 169 164 153 149 148 151 152 148 147 144 139 138 136 134 131 129 126 121 118 117 118 119 121 121 121 121 125 124 140 226 297 280 271 274
Height
1485 1488 1488 1486 1485 1486 1485 1487 1487 1482 1480 1484 1488 1485 1480 1476 1475 1474 1473 1474 1474 1475 1477 1479 1481 1485 1488 1492 1495 1497 1500 1505 1509 1512 1515 1519 1522 1525 1528 1531 1533 1535 1537 1538
1481 1481 1477 1478 1478 1481 1484 1488 1488 1483 1480 1483 1485 1481 1473 1469 1467 1467 1467 1468 1469 1471 1472 1474 1476 1479 1483 1486 1490 1493 1496 1499 1503 1507 1511 1515 1518 1522 1525 1527 1530 1532 1534 1536
1471 1469 1471 1474 1476 1480 1482 1486 1487 1486 1482 1480 1484 1481 1469 1461 1460 1461 1462 1463 1465 1467 1468 1470 1472 1474 1478 1481 1485 1488 1491 1495 1499 1503 1507 1512 1515 1518 1521 1523 1526 1529 1531 1533
1464 1463 1465 1469 1473 1476 1482 1477 1480 1483 1490 1490 1483 1491 1471 1460 1458 1457 1458 1460 1461 1463 1465 1466 1468 1470 1473 1477 1481 1484 1488 1491 1495 1499 1502 1505 1508 1511 1515 1519 1522 1525 1527 1529
1456 1457 1461 1465 1466 1470 1474 1474 1478 1482 1488 1492 1485 1489 1473 1457 1457 1455 1455 1457 1458 1460 1461 1463 1465 1467 1470 1473 1476 1480 1484 1487 1491 1494 1498 1501 1505 1509 1512 1515 1519 1521 1524 1526
1449 1450 1453 1457 1461 1465 1470 1476 1480 1483 1490 1498 1482 1485 1473 1457 1451 1450 1452 1454 1456 1457 1458 1460 1462 1464 1466 1469 1473 1476 1480 1483 1487 1490 1494 1498 1501 1505 1508 1511 1514 1517 1520 1522
1450 1448 1448 1451 1460 1464 1469 1482 1495 1498 1501 1492 1469 1473 1465 1447 1445 1447 1450 1452 1454 1455 1456 1457 1459 1461 1463 1465 1469 1473 1476 1480 1483 1487 1490 1494 1498 1501 1504 1507 1510 1513 1515 1518
1450 1451 1446 1448 1453 1461 1466 1474 1486 1490 1486 1474 1469 1470 1455 1442 1443 1445 1448 1450 1452 1453 1454 1455 1457 1458 1460 1462 1466 1469 1473 1476 1480 1483 1487 1491 1494 1498 1501 1504 1507 1509 1512 1514
1437 1442 1438 1442 1446 1453 1462 1467 1465 1473 1472 1478 1467 1453 1444 1440 1441 1444 1446 1448 1450 1451 1452 1454 1455 1456 1458 1460 1463 1466 1470 1473 1476 1480 1484 1487 1491 1494 1497 1500 1503 1506 1508 1510
1422 1434 1433 1438 1444 1447 1450 1456 1466 1473 1482 1485 1468 1459 1452 1443 1443 1443 1445 1446 1448 1450 1451 1452 1453 1455 1456 1458 1461 1464 1468 1470 1473 1477 1480 1484 1487 1491 1494 1497 1499 1502 1504 1506
1418 1427 1435 1438 1441 1444 1450 1453 1455 1462 1464 1473 1471 1457 1431 1433 1435 1439 1442 1444 1446 1448 1449 1450 1452 1453 1455 1457 1459 1462 1465 1468 1471 1474 1477 1480 1484 1487 1490 1493 1496 1498 1500 1502
1414 1421 1436 1436 1432 1434 1439 1442 1448 1459 1459 1457 1464 1456 1428 1430 1432 1436 1440 1442 1444 1446 1447 1449 1450 1452 1453 1455 1457 1460 1463 1465 1468 1471 1474 1477 1480 1483 1486 1489 1491 1494 1496 1498
1412 1420 1434 1442 1442 1437 1436 1435 1438 1443 1448 1452 1459 1451 1429 1430 1432 1435 1438 1440 1442 1444 1445 1447 1448 1449 1451 1453 1455 1457 1460 1462 1465 1467 1470 1473 1476 1479 1482 1484 1487 1490 1492 1494
1405 1413 1419 1426 1424 1426 1432 1431 1431 1438 1445 1446 1444 1439 1432 1430 1431 1433 1435 1437 1439 1441 1442 1444 1446 1447 1449 1450 1452 1454 1456 1459 1461 1464 1467 1469 1472 1475 1478 1480 1483 1485 1488 1490
1401 1409 1409 1407 1406 1410 1418 1422 1425 1428 1429 1436 1432 1431 1427 1426 1427 1428 1430 1433 1435 1437 1439 1441 1443 1444 1446 1448 1449 1451 1453 1456 1458 1460 1463 1465 1468 1471 1474 1476 1479 1481 1483 1485
1400 1405 1408 1408 1405 1405 1411 1413 1417 1419 1421 1423 1424 1424 1418 1419 1421 1423 1426 1428 1431 1433 1435 1437 1439 1441 1442 1444 1446 1448 1450 1452 1455 1457 1459 1462 1465 1467 1470 1472 1474 1477 1479 1481
1400 1404 1409 1410 1406 1409 1414 1407 1409 1411 1412 1416 1419 1416 1415 1417 1418 1419 1422 1424 1426 1429 1431 1433 1435 1437 1439 1441 1442 1444 1446 1449 1451 1454 1456 1459 1461 1463 1466 1468 1470 1472 1474 1476
1397 1402 1405 1409 1411 1421 1402 1393 1397 1402 1403 1405 1406 1407 1409 1411 1413 1415 1417 1420 1422 1425 1427 1429 1431 1433 1436 1438 1440 1442 1444 1446 1448 1451 1453 1455 1457 1460 1462 1464 1466 1468 1470 1471
1391 1397 1403 1409 1410 1405 1392 1387 1389 1396 1397 1396 1399 1401 1404 1407 1410 1411 1413 1415 1418 1421 1423 1425 1428 1430 1432 1435 1437 1439 1441 1444 1446 1448 1450 1452 1454 1456 1458 1460 1462 1464 1465 1467
1386 1391 1400 1405 1407 1404 1386 1380 1381 1390 1397 1388 1390 1393 1397 1402 1411 1409 1409 1411 1414 1417 1419 1422 1425 1427 1429 1432 1435 1437 1439 1441 1443 1445 1447 1449 1451 1453 1455 1457 1459 1460 1462 1463
1385 1388 1393 1399 1400 1389 1374 1373 1380 1399 1392 1380 1381 1385 1390 1395 1399 1402 1405 1408 1410 1413 1416 1419 1422 1425 1428 1430 1433 1435 1437 1439 1441 1443 1445 1447 1448 1450 1452 1454 1455 1457 1458 1458
1375 1381 1386 1390 1395 1390 1372 1373 1379 1379 1375 1375 1377 1380 1385 1389 1394 1398 1402 1405 1408 1411 1414 1417 1420 1423 1426 1429 1431 1433 1435 1438 1439 1441 1443 1444 1446 1447 1449 1451 1452 1453 1454 1454
1363 1364 1367 1371 1372 1364 1365 1366 1368 1370 1373 1374 1376 1379 1382 1387 1391 1395 1399 1403 1406 1410 1413 1416 1419 1422 1425 1428 1430 1432 1434 1436 1437 1439 1440 1442 1443 1445 1446 1448 1449 1449 1450 1449
1354 1354 1357 1360 1359 1360 1361 1362 1365 1368 1370 1372 1375 1378 1381 1384 1388 1393 1397 1401 1404 1408 1411 1414 1418 1420 1423 1426 1428 1430 1432 1434 1435 1437 1438 1440 1441 1443 1444 1445 1446 1446 1445 1445
1347 1351 1353 1354 1352 1354 1357 1359 1362 1365 1368 1371 1374 1377 1379 1382 1386 1390 1394 1398 1402 1406 1410 1413 1416 1419 1422 1424 1426 1429 1430 1432 1433 1435 1436 1438 1439 1440 1441 1441 1442 1441 1441 1440
1341 1344 1349 1349 1347 1350 1352 1355 1358 1362 1365 1368 1371 1375 1378 1381 1384 1388 1392 1396 1400 1404 1408 1411 1414 1417 1420 1422 1425 1427 1428 1430 1431 1433 1434 1435 1436 1437 1437 1437 1437 1436 1436 1434